This demonstration page uses our WeatherBlox Daily Observations layout. Learn more.

Hourly Observations for August 14, 2019

Temp ( °F °C ) Dew Point ( °F °C ) Humidity (%) Winds ( mph kmh ) Pressure ( in mb ) Visibility ( mi km ) Precip ( " mm )
12:15 am 00:15 Partly Cloudy 72 22 72 22 100 100 Calm 29.8 1009 10 16.09344 0 0
12:35 am 00:35 Partly Cloudy 72 22 72 22 100 100 Calm 29.8 1009 10 16.09344 0 0
12:55 am 00:55 Partly Cloudy 72 22 72 22 100 100 Calm 29.8 1009 10 16.09344 0 0
1:15 am 01:15 Mostly Cloudy 72 22 72 22 100 100 Calm 29.8 1009 7 11.265408 0 0
1:35 am 01:35 Partly Cloudy 70 21 70 21 100 100 Calm 29.8 1009 10 16.09344 0 0
1:55 am 01:55 Mostly Cloudy 70 21 70 21 100 100 SSE 3 6 29.77 1008 10 16.09344 0 0
2:15 am 02:15 Partly Cloudy 70 21 70 21 100 100 Calm 29.77 1008 10 16.09344 0 0
2:35 am 02:35 Clear 70 21 70 21 100 100 Calm 29.77 1008 10 16.09344 0 0
2:55 am 02:55 Clear 68 20 68 20 100 100 WSW 3 6 29.77 1008 7 11.265408 0 0
3:15 am 03:15 Partly Cloudy 68 20 68 20 100 100 Calm 29.77 1008 10 16.09344 0 0
3:35 am 03:35 Mostly Cloudy 68 20 68 20 100 100 Calm 29.77 1008 10 16.09344 0 0
3:55 am 03:55 Mostly Cloudy 68 20 68 20 100 100 Calm 29.77 1008 10 16.09344 0 0
4:15 am 04:15 Cloudy 68 20 68 20 100 100 Calm 29.77 1008 1 1.609344 0 0
4:35 am 04:35 Cloudy 70 21 70 21 100 100 Calm 29.8 1009 1.5 2.414016 0 0
4:55 am 04:55 Cloudy 70 21 70 21 100 100 Calm 29.8 1009 2.5 4.02336 0 0
5:15 am 05:15 Cloudy 70 21 70 21 100 100 NE 3 6 29.8 1009 0.75 1.207008 0 0
5:35 am 05:35 Cloudy 70 21 70 21 100 100 Calm 29.8 1009 2 3.218688 0 0
5:55 am 05:55 Cloudy 68 20 68 20 100 100 Calm 29.8 1009 2 3.218688 0 0
6:15 am 06:15 Cloudy 68 20 68 20 100 100 Calm 29.83 1010 0.75 1.207008 0 0
6:35 am 06:35 Cloudy 68 20 68 20 100 100 Calm 29.83 1010 1.25 2.01168 0 0
6:55 am 06:55 Cloudy 68 20 68 20 100 100 Calm 29.83 1010 1.5 2.414016 0 0
7:15 am 07:15 Cloudy 68 20 68 20 100 100 W 6 9 29.83 1010 5 8.04672 0 0
7:35 am 07:35 Cloudy 68 20 68 20 100 100 NW 3 6 29.83 1010 7 11.265408 0 0
7:55 am 07:55 Cloudy 70 21 70 21 100 100 Calm 29.83 1010 7 11.265408 0 0
8:15 am 08:15 Mostly Cloudy 72 22 70 21 94 94 NW 6 9 29.83 1010 7 11.265408 0 0
8:35 am 08:35 Mostly Cloudy 73 23 72 22 94 94 NNW 7 11 29.85 1011 10 16.09344 0 0
8:55 am 08:55 Partly Cloudy 73 23 70 21 89 89 NNW 7 11 29.85 1011 10 16.09344 0 0
9:15 am 09:15 Partly Cloudy 73 23 70 21 89 89 NNW 7 11 29.83 1010 10 16.09344 0 0
9:35 am 09:35 Mostly Cloudy 77 25 72 22 83 83 NNW 9 15 29.83 1010 10 16.09344 0 0
9:55 am 09:55 Cloudy 77 25 72 22 83 83 NW 13 20 29.83 1010 10 16.09344 0 0
10:15 am 10:15 Cloudy 77 25 72 22 83 83 NW 9 15 29.85 1011 10 16.09344 0 0
10:35 am 10:35 Cloudy 77 25 70 21 79 79 N 10 17 29.83 1010 10 16.09344 0 0
10:55 am 10:55 Cloudy 79 26 72 22 79 79 NW 8 13 29.83 1010 10 16.09344 0 0
11:15 am 11:15 Mostly Cloudy 79 26 72 22 79 79 N 9 15 29.83 1010 10 16.09344 0 0
11:35 am 11:35 Mostly Cloudy 81 27 72 22 74 74 NNW 14 22 29.83 1010 10 16.09344 0 0
11:55 am 11:55 Mostly Cloudy 82 28 72 22 70 70 N 10 17 29.83 1010 10 16.09344 0 0
12:15 pm 12:15 Mostly Cloudy 82 28 72 22 70 70 N 14 22 29.85 1011 10 16.09344 0 0
12:35 pm 12:35 Mostly Cloudy 84 29 72 22 66 66 NW 13 20 29.83 1010 10 16.09344 0 0
12:55 pm 12:55 Cloudy 82 28 70 21 66 66 NNW 14 22 29.85 1011 10 16.09344 0 0
1:15 pm 13:15 Cloudy 82 28 72 22 70 70 N 8 13 29.85 1011 10 16.09344 0 0
1:35 pm 13:35 Cloudy 82 28 70 21 66 66 NNE 10 17 29.85 1011 10 16.09344 0 0
1:55 pm 13:55 Cloudy 82 28 72 22 70 70 NE 8 13 29.88 1012 10 16.09344 0 0
2:15 pm 14:15 Cloudy 82 28 72 22 70 70 N 6 9 29.88 1012 10 16.09344 0 0
2:35 pm 14:35 Mostly Cloudy 84 29 72 22 66 66 N 8 13 29.83 1010 10 16.09344 0 0
2:55 pm 14:55 Partly Cloudy 86 30 72 22 62 62 N 9 15 29.83 1010 10 16.09344 0 0
3:15 pm 15:15 Mostly Cloudy 88 31 72 22 59 59 NNE 7 11 29.83 1010 10 16.09344 0 0
3:35 pm 15:35 Partly Cloudy 86 30 72 22 62 62 ENE 7 11 29.83 1010 10 16.09344 0 0
3:55 pm 15:55 Mostly Cloudy 86 30 72 22 62 62 NE 7 11 29.83 1010 10 16.09344 0 0
4:15 pm 16:15 Partly Cloudy 88 31 70 21 55 55 NNE 8 13 29.83 1010 10 16.09344 0 0
4:35 pm 16:35 Partly Cloudy 88 31 72 22 59 59 NNE 5 7 29.83 1010 10 16.09344 0 0
4:55 pm 16:55 Partly Cloudy 88 31 72 22 59 59 Calm 29.83 1010 10 16.09344 0 0
5:15 pm 17:15 Partly Cloudy 88 31 72 22 59 59 NNE 7 11 29.83 1010 10 16.09344 0 0
5:35 pm 17:35 Mostly Cloudy 88 31 72 22 59 59 NE 8 13 29.83 1010 10 16.09344 0 0
5:55 pm 17:55 Partly Cloudy 86 30 72 22 62 62 E 5 7 29.83 1010 10 16.09344 0 0
6:15 pm 18:15 Partly Cloudy 86 30 72 22 62 62 NE 6 9 29.83 1010 10 16.09344 0 0
6:35 pm 18:35 Partly Cloudy 86 30 72 22 62 62 NE 6 9 29.83 1010 10 16.09344 0 0
6:55 pm 18:55 Partly Cloudy 86 30 72 22 62 62 NE 6 9 29.83 1010 10 16.09344 0 0
7:15 pm 19:15 Sunny 86 30 72 22 62 62 NE 7 11 29.83 1010 10 16.09344 0 0
7:35 pm 19:35 Sunny 84 29 72 22 66 66 NE 7 11 29.83 1010 10 16.09344 0 0
7:55 pm 19:55 Sunny 84 29 70 21 62 62 Calm 29.88 1012 10 16.09344 0 0
8:15 pm 20:15 Clear 82 28 72 22 70 70 Calm 29.88 1012 10 16.09344 0 0
8:35 pm 20:35 Clear 81 27 72 22 74 74 Calm 29.88 1012 10 16.09344 0 0
8:55 pm 20:55 Clear 81 27 72 22 74 74 Calm 29.88 1012 10 16.09344 0 0
9:15 pm 21:15 Clear 77 25 72 22 83 83 Calm 29.91 1013 10 16.09344 0 0
9:35 pm 21:35 Clear 79 26 72 22 79 79 Calm 29.91 1013 10 16.09344 0 0
9:55 pm 21:55 Clear 77 25 72 22 83 83 Calm 29.91 1013 10 16.09344 0 0
10:15 pm 22:15 Clear 77 25 72 22 83 83 Calm 29.91 1013 10 16.09344 0 0
10:35 pm 22:35 Clear 75 24 72 22 89 89 Calm 29.91 1013 10 16.09344 0 0
10:55 pm 22:55 Clear 73 23 72 22 94 94 Calm 29.91 1013 10 16.09344 0 0
11:15 pm 23:15 Clear 73 23 72 22 94 94 Calm 29.91 1013 10 16.09344 0 0
11:35 pm 23:35 Clear 73 23 72 22 94 94 Calm 29.91 1013 10 16.09344 0 0
11:55 pm 23:55 Clear 72 22 72 22 100 100 Calm 29.94 1014 10 16.09344 0 0

Powered by AerisWeather